Time,TemperatureF,DewpointF,PressureIn,WindDirection,WindDirectionDegrees,WindSpeedMPH,WindSpeedGustMPH,Humidity,HourlyPrecipIn,Conditions,Clouds,dailyrainin,SoftwareType,DateUTC
2013-06-20 00:04:00,51.8,47.0,30.20,ESE,120,3.0,7.0,84,0.00,,,0.00,weatherlink.com 1.10,2013-06-20 04:04:00,
2013-06-20 00:19:00,51.3,47.0,30.20,SE,133,4.0,6.0,85,0.00,,,0.00,weatherlink.com 1.10,2013-06-20 04:19:00,
2013-06-20 00:34:00,51.3,47.0,30.20,SE,127,7.0,8.0,85,0.00,,,0.00,weatherlink.com 1.10,2013-06-20 04:34:00,
2013-06-20 00:49:00,51.3,47.0,30.20,SE,124,5.0,9.0,85,0.00,,,0.00,weatherlink.com 1.10,2013-06-20 04:49:00,
2013-06-20 01:04:00,50.8,47.0,30.20,SE,128,7.0,9.0,86,0.00,,,0.00,weatherlink.com 1.10,2013-06-20 05:04:00,
2013-06-20 01:19:00,50.7,47.0,30.20,SE,133,7.0,9.0,87,0.00,,,0.00,weatherlink.com 1.10,2013-06-20 05:19:00,
2013-06-20 01:34:00,50.5,47.0,30.20,ESE,120,8.0,10.0,87,0.00,,,0.00,weatherlink.com 1.10,2013-06-20 05:34:00,
2013-06-20 01:49:00,49.7,46.0,30.21,SE,143,0.0,8.0,87,0.00,,,0.00,weatherlink.com 1.10,2013-06-20 05:49:00,
2013-06-20 02:04:00,49.4,45.0,30.21,SE,143,5.0,7.0,85,0.00,,,0.00,weatherlink.com 1.10,2013-06-20 06:04:00,
2013-06-20 02:19:00,48.8,45.0,30.21,SE,143,2.0,3.0,86,0.00,,,0.00,weatherlink.com 1.10,2013-06-20 06:19:00,
2013-06-20 02:34:00,49.0,45.0,30.21,SE,139,5.0,7.0,86,0.00,,,0.00,weatherlink.com 1.10,2013-06-20 06:34:00,
2013-06-20 02:49:00,48.7,45.0,30.21,SE,139,0.0,4.0,87,0.00,,,0.00,weatherlink.com 1.10,2013-06-20 06:49:00,
2013-06-20 03:04:00,48.3,45.0,30.21,SE,139,3.0,3.0,88,0.00,,,0.00,weatherlink.com 1.10,2013-06-20 07:04:00,
2013-06-20 03:19:00,48.0,45.0,30.21,SE,139,4.0,5.0,88,0.00,,,0.00,weatherlink.com 1.10,2013-06-20 07:19:00,
2013-06-20 03:34:00,48.0,45.0,30.20,SE,138,4.0,6.0,88,0.00,,,0.00,weatherlink.com 1.10,2013-06-20 07:34:00,
2013-06-20 03:49:00,47.7,44.0,30.20,SE,138,0.0,5.0,88,0.00,,,0.00,weatherlink.com 1.10,2013-06-20 07:49:00,
2013-06-20 04:04:00,47.4,44.0,30.20,SE,138,0.0,5.0,89,0.00,,,0.00,weatherlink.com 1.10,2013-06-20 08:04:00,
2013-06-20 04:19:00,47.0,44.0,30.21,SE,137,0.0,0.0,89,0.00,,,0.00,weatherlink.com 1.10,2013-06-20 08:19:00,
2013-06-20 04:34:00,46.6,44.0,30.22,SE,138,0.0,0.0,90,0.00,,,0.00,weatherlink.com 1.10,2013-06-20 08:34:00,
2013-06-20 04:49:00,46.5,44.0,30.22,SE,137,0.0,0.0,90,0.00,,,0.00,weatherlink.com 1.10,2013-06-20 08:49:00,
2013-06-20 05:04:00,46.3,43.0,30.22,SE,138,0.0,3.0,89,0.00,,,0.00,weatherlink.com 1.10,2013-06-20 09:04:00,
2013-06-20 05:19:00,46.2,43.0,30.23,SE,137,0.0,0.0,89,0.00,,,0.00,weatherlink.com 1.10,2013-06-20 09:19:00,
2013-06-20 05:34:00,46.1,43.0,30.23,SE,137,0.0,0.0,89,0.00,,,0.00,weatherlink.com 1.10,2013-06-20 09:34:00,
2013-06-20 05:49:00,46.0,43.0,30.23,SSE,147,1.0,3.0,89,0.00,,,0.00,weatherlink.com 1.10,2013-06-20 09:49:00,
2013-06-20 06:04:00,46.8,44.0,30.24,SE,131,1.0,5.0,89,0.00,,,0.00,weatherlink.com 1.10,2013-06-20 10:04:00,
2013-06-20 06:19:00,47.6,44.0,30.24,SE,131,3.0,4.0,88,0.00,,,0.00,weatherlink.com 1.10,2013-06-20 10:19:00,
2013-06-20 06:34:00,48.7,46.0,30.24,SE,135,6.0,7.0,89,0.00,,,0.00,weatherlink.com 1.10,2013-06-20 10:34:00,
2013-06-20 06:49:00,49.8,46.0,30.24,SE,139,4.0,6.0,88,0.00,,,0.00,weatherlink.com 1.10,2013-06-20 10:49:00,
2013-06-20 07:04:00,50.6,47.0,30.25,SE,146,1.0,7.0,86,0.00,,,0.00,weatherlink.com 1.10,2013-06-20 11:04:00,
2013-06-20 07:19:00,51.6,47.0,30.25,SSE,151,0.0,1.0,85,0.00,,,0.00,weatherlink.com 1.10,2013-06-20 11:19:00,
2013-06-20 07:34:00,52.7,48.0,30.25,SSE,151,0.0,2.0,83,0.00,,,0.00,weatherlink.com 1.10,2013-06-20 11:34:00,
2013-06-20 07:49:00,54.0,48.0,30.25,SSE,151,0.0,0.0,80,0.00,,,0.00,weatherlink.com 1.10,2013-06-20 11:49:00,
2013-06-20 08:04:00,55.9,48.0,30.25,SSE,151,0.0,0.0,76,0.00,,,0.00,weatherlink.com 1.10,2013-06-20 12:04:00,
2013-06-20 08:19:00,56.8,49.0,30.25,SSE,151,0.0,2.0,74,0.00,,,0.00,weatherlink.com 1.10,2013-06-20 12:19:00,
2013-06-20 08:34:00,59.9,50.0,30.25,SSE,151,0.0,0.0,70,0.00,,,0.00,weatherlink.com 1.10,2013-06-20 12:34:00,
2013-06-20 08:49:00,61.4,50.0,30.25,SSE,151,0.0,0.0,66,0.00,,,0.00,weatherlink.com 1.10,2013-06-20 12:49:00,
2013-06-20 09:04:00,61.8,50.0,30.25,SSE,151,0.0,1.0,65,0.00,,,0.00,weatherlink.com 1.10,2013-06-20 13:04:00,
2013-06-20 09:19:00,62.3,48.0,30.25,SE,124,1.0,4.0,59,0.00,,,0.00,weatherlink.com 1.10,2013-06-20 13:19:00,
2013-06-20 09:35:00,63.6,48.0,30.25,ESE,123,2.0,3.0,57,0.00,,,0.00,weatherlink.com 1.10,2013-06-20 13:35:00,
2013-06-20 09:50:00,63.5,51.0,30.25,SW,228,0.0,3.0,63,0.00,,,0.00,weatherlink.com 1.10,2013-06-20 13:50:00,
2013-06-20 10:05:00,62.9,50.0,30.25,NW,318,0.0,5.0,64,0.00,,,0.00,weatherlink.com 1.10,2013-06-20 14:05:00,
2013-06-20 10:20:00,64.3,50.0,30.26,NW,320,0.0,4.0,61,0.00,,,0.00,weatherlink.com 1.10,2013-06-20 14:20:00,
2013-06-20 10:35:00,66.7,50.0,30.26,SSW,199,2.0,4.0,56,0.00,,,0.00,weatherlink.com 1.10,2013-06-20 14:35:00,
2013-06-20 10:50:00,67.8,51.0,30.25,SE,130,3.0,3.0,56,0.00,,,0.00,weatherlink.com 1.10,2013-06-20 14:50:00,
2013-06-20 11:05:00,67.6,50.0,30.25,West,269,2.0,6.0,53,0.00,,,0.00,weatherlink.com 1.10,2013-06-20 15:05:00,
2013-06-20 11:20:00,67.7,51.0,30.25,West,259,2.0,4.0,55,0.00,,,0.00,weatherlink.com 1.10,2013-06-20 15:20:00,
2013-06-20 11:35:00,68.7,51.0,30.25,SSW,211,5.0,6.0,53,0.00,,,0.00,weatherlink.com 1.10,2013-06-20 15:35:00,
2013-06-20 11:50:00,68.7,51.0,30.24,West,267,2.0,4.0,53,0.00,,,0.00,weatherlink.com 1.10,2013-06-20 15:50:00,
2013-06-20 12:05:00,68.8,51.0,30.24,SSW,212,3.0,7.0,53,0.00,,,0.00,weatherlink.com 1.10,2013-06-20 16:05:00,
2013-06-20 12:20:00,69.1,51.0,30.24,SW,236,4.0,7.0,52,0.00,,,0.00,weatherlink.com 1.10,2013-06-20 16:20:00,
2013-06-20 12:35:00,69.5,50.0,30.23,SW,216,1.0,11.0,50,0.00,,,0.00,weatherlink.com 1.10,2013-06-20 16:35:00,
2013-06-20 12:50:00,70.4,50.0,30.22,SW,222,4.0,8.0,49,0.00,,,0.00,weatherlink.com 1.10,2013-06-20 16:50:00,
2013-06-20 13:05:00,70.9,52.0,30.22,SW,216,5.0,9.0,52,0.00,,,0.00,weatherlink.com 1.10,2013-06-20 17:05:00,
2013-06-20 13:20:00,71.3,52.0,30.22,SSW,206,3.0,7.0,50,0.00,,,0.00,weatherlink.com 1.10,2013-06-20 17:20:00,
2013-06-20 13:35:00,71.6,52.0,30.22,South,182,1.0,6.0,50,0.00,,,0.00,weatherlink.com 1.10,2013-06-20 17:35:00,
2013-06-20 13:50:00,71.7,51.0,30.22,WNW,295,0.0,8.0,49,0.00,,,0.00,weatherlink.com 1.10,2013-06-20 17:50:00,
2013-06-20 14:05:00,72.5,52.0,30.21,SSW,201,0.0,9.0,49,0.00,,,0.00,weatherlink.com 1.10,2013-06-20 18:05:00,
2013-06-20 14:20:00,72.7,52.0,30.22,West,268,5.0,8.0,49,0.00,,,0.00,weatherlink.com 1.10,2013-06-20 18:20:00,
2013-06-20 14:35:00,74.1,54.0,30.21,WNW,287,6.0,10.0,49,0.00,,,0.00,weatherlink.com 1.10,2013-06-20 18:35:00,
2013-06-20 14:50:00,73.4,54.0,30.21,WSW,253,6.0,12.0,50,0.00,,,0.00,weatherlink.com 1.10,2013-06-20 18:50:00,
2013-06-20 15:05:00,73.3,54.0,30.21,NW,321,4.0,12.0,51,0.00,,,0.00,weatherlink.com 1.10,2013-06-20 19:05:00,
2013-06-20 15:20:00,73.9,53.0,30.21,West,264,2.0,8.0,49,0.00,,,0.00,weatherlink.com 1.10,2013-06-20 19:20:00,
2013-06-20 15:35:00,74.9,56.0,30.21,NNW,341,0.0,9.0,52,0.00,,,0.00,weatherlink.com 1.10,2013-06-20 19:35:00,
2013-06-20 15:50:00,74.4,57.0,30.20,WNW,285,6.0,12.0,54,0.00,,,0.00,weatherlink.com 1.10,2013-06-20 19:50:00,
2013-06-20 16:05:00,74.6,55.0,30.20,NW,312,0.0,9.0,50,0.00,,,0.00,weatherlink.com 1.10,2013-06-20 20:05:00,
2013-06-20 16:20:00,74.6,55.0,30.20,NE,36,9.0,9.0,51,0.00,,,0.00,weatherlink.com 1.10,2013-06-20 20:20:00,
2013-06-20 16:35:00,74.9,55.0,30.20,NW,311,1.0,5.0,51,0.00,,,0.00,weatherlink.com 1.10,2013-06-20 20:35:00,
2013-06-20 16:50:00,74.7,57.0,30.19,NW,305,7.0,10.0,54,0.00,,,0.00,weatherlink.com 1.10,2013-06-20 20:50:00,
2013-06-20 17:05:00,74.3,56.0,30.19,NW,317,9.0,9.0,54,0.00,,,0.00,weatherlink.com 1.10,2013-06-20 21:05:00,
2013-06-20 17:20:00,74.3,57.0,30.19,NNW,347,6.0,9.0,56,0.00,,,0.00,weatherlink.com 1.10,2013-06-20 21:20:00,
2013-06-20 17:35:00,73.5,56.0,30.20,NE,53,3.0,11.0,54,0.00,,,0.00,weatherlink.com 1.10,2013-06-20 21:35:00,
2013-06-20 17:50:00,73.0,55.0,30.20,North,349,6.0,11.0,53,0.00,,,0.00,weatherlink.com 1.10,2013-06-20 21:50:00,
2013-06-20 18:05:00,72.6,54.0,30.20,North,4,4.0,11.0,52,0.00,,,0.00,weatherlink.com 1.10,2013-06-20 22:05:00,
2013-06-20 18:20:00,72.6,53.0,30.20,North,4,3.0,8.0,50,0.00,,,0.00,weatherlink.com 1.10,2013-06-20 22:20:00,
2013-06-20 18:35:00,71.8,50.0,30.20,NNE,23,3.0,7.0,46,0.00,,,0.00,weatherlink.com 1.10,2013-06-20 22:35:00,
2013-06-20 18:50:00,71.3,48.0,30.20,NNE,12,2.0,10.0,44,0.00,,,0.00,weatherlink.com 1.10,2013-06-20 22:50:00,
2013-06-20 19:05:00,70.9,47.0,30.20,NNE,16,0.0,8.0,43,0.00,,,0.00,weatherlink.com 1.10,2013-06-20 23:05:00,
2013-06-20 19:20:00,70.2,47.0,30.20,NNE,29,9.0,10.0,43,0.00,,,0.00,weatherlink.com 1.10,2013-06-20 23:20:00,
2013-06-20 19:36:00,69.6,44.0,30.20,NE,37,1.0,7.0,40,0.00,,,0.00,weatherlink.com 1.10,2013-06-20 23:36:00,
2013-06-20 19:51:00,69.2,44.0,30.20,NE,35,2.0,6.0,40,0.00,,,0.00,weatherlink.com 1.10,2013-06-20 23:51:00,
2013-06-20 20:06:00,68.6,43.0,30.20,NE,35,0.0,4.0,39,0.00,,,0.00,weatherlink.com 1.10,2013-06-21 00:06:00,
2013-06-20 20:21:00,68.2,42.0,30.20,NE,35,0.0,3.0,39,0.00,,,0.00,weatherlink.com 1.10,2013-06-21 00:21:00,
2013-06-20 20:36:00,67.6,42.0,30.20,NE,35,0.0,2.0,39,0.00,,,0.00,weatherlink.com 1.10,2013-06-21 00:36:00,
2013-06-20 20:51:00,66.8,42.0,30.20,NE,35,0.0,0.0,41,0.00,,,0.00,weatherlink.com 1.10,2013-06-21 00:51:00,
2013-06-20 21:06:00,65.9,42.0,30.20,NE,35,0.0,0.0,42,0.00,,,0.00,weatherlink.com 1.10,2013-06-21 01:06:00,
2013-06-20 21:21:00,65.4,42.0,30.21,NE,35,0.0,2.0,43,0.00,,,0.00,weatherlink.com 1.10,2013-06-21 01:21:00,
2013-06-20 21:36:00,65.0,44.0,30.21,NE,35,0.0,0.0,46,0.00,,,0.00,weatherlink.com 1.10,2013-06-21 01:36:00,
2013-06-20 21:51:00,63.8,45.0,30.22,NE,35,0.0,0.0,50,0.00,,,0.00,weatherlink.com 1.10,2013-06-21 01:51:00,
2013-06-20 22:06:00,63.0,44.0,30.22,NE,35,0.0,0.0,50,0.00,,,0.00,weatherlink.com 1.10,2013-06-21 02:06:00,
2013-06-20 22:21:00,62.0,44.0,30.22,NE,35,0.0,0.0,53,0.00,,,0.00,weatherlink.com 1.10,2013-06-21 02:21:00,
2013-06-20 22:36:00,61.4,45.0,30.22,NE,35,0.0,0.0,55,0.00,,,0.00,weatherlink.com 1.10,2013-06-21 02:36:00,
2013-06-20 22:51:00,61.0,47.0,30.22,NE,35,0.0,0.0,60,0.00,,,0.00,weatherlink.com 1.10,2013-06-21 02:51:00,
2013-06-20 23:06:00,60.8,47.0,30.22,ESE,122,1.0,4.0,60,0.00,,,0.00,weatherlink.com 1.10,2013-06-21 03:06:00,
2013-06-20 23:21:00,61.3,47.0,30.23,ESE,122,0.0,2.0,60,0.00,,,0.00,weatherlink.com 1.10,2013-06-21 03:21:00,
2013-06-20 23:36:00,60.0,48.0,30.23,ESE,122,1.0,2.0,64,0.00,,,0.00,weatherlink.com 1.10,2013-06-21 03:36:00,
2013-06-20 23:51:00,59.0,48.0,30.22,ESE,122,0.0,0.0,68,0.00,,,0.00,weatherlink.com 1.10,2013-06-21 03:51:00,